F8KHU-13 Weather Reports


Display with metric or nautical units.
time (UTC)temp
F
wind
direction
speed
MPH
gust
MPH
rain 1hr
in
rain 24hr
in
rain mn
in
humidity
%
barometer
mb
20260510025536 56 115 0.0 1.0 0.00 0.00 0.00 30 1015.9
20260510025516 56 113 0.0 1.0 0.00 0.00 0.00 30 1015.9
20260510025456 56 112 0.0 1.0 0.00 0.00 0.00 30 1015.9
20260510024017 55 112 0.0 2.0 0.00 0.00 0.00 30 1016.4
20260510023957 55 111 0.0 2.0 0.00 0.00 0.00 30 1016.4
20260510022537 55 151 1.0 2.0 0.00 0.00 0.00 30 1016.4
20260510022517 55 152 1.0 2.0 0.00 0.00 0.00 30 1016.4
20260510022457 55 153 1.0 2.0 0.00 0.00 0.00 30 1016.4
20260510021017 56 107 0.0 2.0 0.00 0.00 0.00 30 1016.4
20260510020957 56 108 0.0 2.0 0.00 0.00 0.00 30 1016.4
20260510015537 56 135 0.0 1.0 0.00 0.00 0.00 30 1016.2
20260510015517 56 136 0.0 1.0 0.00 0.00 0.00 30 1016.3
20260510015457 56 137 0.0 1.0 0.00 0.00 0.00 30 1016.2
20260510014037 57 80 0.0 1.0 0.00 0.00 0.00 30 1016.3
20260510014017 57 77 0.0 1.0 0.00 0.00 0.00 30 1016.3
20260510013957 57 75 0.0 1.0 0.00 0.00 0.00 30 1016.3
20260510012537 58 79 0.0 1.0 0.00 0.00 0.00 30 1016.4
20260510012517 58 80 0.0 1.0 0.00 0.00 0.00 30 1016.5
20260510012457 58 81 0.0 1.0 0.00 0.00 0.00 30 1016.5
20260510011017 58 113 0.0 1.0 0.00 0.00 0.00 29 1016.7
20260510010957 58 113 0.0 1.0 0.00 0.00 0.00 29 1016.6
20260510005538 58 146 0.0 1.0 0.00 0.00 0.00 29 1016.8
20260510005518 58 148 0.0 1.0 0.00 0.00 0.00 29 1016.9
20260510005458 58 150 0.0 1.0 0.00 0.00 0.00 29 1016.8
20260510004038 58 128 0.0 1.0 0.00 0.00 0.00 29 1017.0
20260510004018 58 129 0.0 1.0 0.00 0.00 0.00 29 1017.0
20260510003958 58 130 0.0 1.0 0.00 0.00 0.00 29 1016.9
20260510002518 59 159 0.0 2.0 0.00 0.00 0.00 29 1017.2
20260510002458 59 158 0.0 2.0 0.00 0.00 0.00 29 1017.2
20260510001038 59 146 0.0 1.0 0.00 0.00 0.00 29 1017.1
20260510001018 59 144 0.0 1.0 0.00 0.00 0.00 29 1017.2
20260510000958 59 142 0.0 1.0 0.00 0.00 0.00 29 1017.2
20260509235533 59 67 0.0 1.0 0.00 0.00 0.00 29 1017.3
20260509235453 59 68 0.0 1.0 0.00 0.00 0.00 29 1017.3
20260509234013 60 41 0.0 1.0 0.00 0.00 0.00 29 1017.3
20260509233953 60 42 0.0 1.0 0.00 0.00 0.00 29 1017.3
20260509232533 60 97 0.0 2.0 0.00 0.00 0.00 29 1017.4
20260509232513 60 95 0.0 2.0 0.00 0.00 0.00 29 1017.3
20260509232453 60 93 0.0 2.0 0.00 0.00 0.00 29 1017.3
20260509231033 60 103 0.0 1.0 0.00 0.00 0.00 29 1017.3
20260509231014 60 106 0.0 1.0 0.00 0.00 0.00 29 1017.4
20260509230954 60 103 0.0 1.0 0.00 0.00 0.00 29 1017.4
20260509225534 61 204 0.0 2.0 0.00 0.00 0.00 29 1017.4
20260509225514 61 206 0.0 2.0 0.00 0.00 0.00 28 1017.3
20260509225454 61 210 0.0 2.0 0.00 0.00 0.00 28 1017.4
20260509224034 62 154 0.0 2.0 0.00 0.00 0.00 28 1017.4
20260509224014 62 155 0.0 2.0 0.00 0.00 0.00 28 1017.4
20260509223954 62 157 0.0 2.0 0.00 0.00 0.00 28 1017.4
20260509222514 62 142 0.0 2.0 0.00 0.00 0.00 28 1017.4
20260509222454 62 141 1.0 2.0 0.00 0.00 0.00 28 1017.5
20260509221034 63 153 0.0 2.0 0.00 0.00 0.00 28 1017.6
20260509221014 63 154 0.0 2.0 0.00 0.00 0.00 28 1017.6
20260509220954 63 155 0.0 2.0 0.00 0.00 0.00 28 1017.6
20260509215534 64 141 0.0 1.0 0.00 0.00 0.00 28 1017.7
20260509215514 64 140 0.0 1.0 0.00 0.00 0.00 28 1017.7
20260509215454 64 139 0.0 1.0 0.00 0.00 0.00 28 1017.7
20260509214034 64 160 0.0 2.0 0.00 0.00 0.00 28 1017.7
20260509214014 64 162 0.0 2.0 0.00 0.00 0.00 28 1017.8
20260509213954 64 164 0.0 2.0 0.00 0.00 0.00 28 1017.7
20260509212534 65 134 0.0 2.0 0.00 0.00 0.00 28 1017.6
20260509212515 65 135 1.0 2.0 0.00 0.00 0.00 28 1017.6
20260509212454 65 133 0.0 2.0 0.00 0.00 0.00 28 1017.6
20260509211034 65 142 0.0 1.0 0.00 0.00 0.00 27 1017.6
20260509211014 65 143 0.0 1.0 0.00 0.00 0.00 27 1017.6
20260509210954 65 144 0.0 1.0 0.00 0.00 0.00 27 1017.7
20260509205534 66 142 0.0 4.0 0.00 0.00 0.00 27 1017.6
20260509205514 66 144 0.0 4.0 0.00 0.00 0.00 27 1017.6
20260509205454 66 147 0.0 4.0 0.00 0.00 0.00 27 1017.7
20260509204035 67 140 0.0 2.0 0.00 0.00 0.00 27 1017.6
20260509204026 67 138 0.0 2.0 0.00 0.00 0.00 27 1017.6
20260509204015 67 139 1.0 2.0 0.00 0.00 0.00 27 1017.6
20260509203955 67 138 0.0 2.0 0.00 0.00 0.00 27 1017.6
20260509202535 68 138 1.0 4.0 0.00 0.00 0.00 27 1017.7
20260509202515 68 139 0.0 4.0 0.00 0.00 0.00 27 1017.6
20260509202455 68 137 0.0 4.0 0.00 0.00 0.00 27 1017.7
20260509201035 69 154 0.0 2.0 0.00 0.00 0.00 27 1017.7
20260509200955 69 154 0.0 2.0 0.00 0.00 0.00 27 1017.7
20260509195535 69 147 0.0 2.0 0.00 0.00 0.00 27 1017.6
20260509195515 69 146 0.0 2.0 0.00 0.00 0.00 26 1017.5
20260509195455 70 147 0.0 2.0 0.00 0.00 0.00 27 1017.6
20260509194035 70 130 1.0 4.0 0.00 0.00 0.00 26 1017.5
20260509194015 70 128 0.0 4.0 0.00 0.00 0.00 26 1017.5
20260509193955 71 127 0.0 4.0 0.00 0.00 0.00 26 1017.5
20260509192536 72 126 0.0 2.0 0.00 0.00 0.00 26 1017.3
20260509192515 72 127 0.0 2.0 0.00 0.00 0.00 26 1017.4
20260509192456 72 127 0.0 2.0 0.00 0.00 0.00 26 1017.3
20260509191036 74 132 0.0 2.0 0.00 0.00 0.00 26 1017.4
20260509190956 74 133 0.0 2.0 0.00 0.00 0.00 26 1017.4
20260509185536 75 138 0.0 4.0 0.00 0.00 0.00 25 1017.3
20260509185516 75 136 0.0 4.0 0.00 0.00 0.00 25 1017.4
20260509185456 75 138 1.0 4.0 0.00 0.00 0.00 25 1017.3
20260509184036 77 157 0.0 7.0 0.00 0.00 0.00 25 1017.4
20260509184016 77 159 1.0 7.0 0.00 0.00 0.00 25 1017.3
20260509183956 77 159 2.0 7.0 0.00 0.00 0.00 25 1017.3
20260509182536 78 140 1.0 7.0 0.00 0.00 0.00 25 1017.2
20260509182516 78 139 0.0 7.0 0.00 0.00 0.00 25 1017.3
20260509182456 78 141 1.0 7.0 0.00 0.00 0.00 25 1017.3
20260509181036 80 142 1.0 7.0 0.00 0.00 0.00 24 1017.3
20260509181016 80 143 1.0 7.0 0.00 0.00 0.00 24 1017.3
20260509180956 80 144 0.0 7.0 0.00 0.00 0.00 24 1017.3
20260509175536 80 148 0.0 7.0 0.00 0.00 0.00 24 1017.2
20260509175516 80 151 0.0 7.0 0.00 0.00 0.00 24 1017.3
20260509175456 80 151 1.0 7.0 0.00 0.00 0.00 24 1017.2
20260509174036 80 161 1.0 7.0 0.00 0.00 0.00 24 1017.1
20260509173956 80 160 1.0 7.0 0.00 0.00 0.00 24 1017.1
20260509172537 82 151 4.0 8.0 0.00 0.00 0.00 24 1017.1
20260509172517 82 151 1.0 8.0 0.00 0.00 0.00 24 1017.1
20260509172457 82 152 2.0 8.0 0.00 0.00 0.00 24 1017.1
20260509171037 84 153 3.0 9.0 0.00 0.00 0.00 23 1017.2
20260509170957 84 151 1.0 9.0 0.00 0.00 0.00 23 1017.2
20260509165537 82 155 2.0 7.0 0.00 0.00 0.00 24 1017.1
20260509165517 82 155 3.0 7.0 0.00 0.00 0.00 24 1017.1
20260509165457 82 154 1.0 7.0 0.00 0.00 0.00 24 1017.1
20260509164037 84 142 4.0 7.0 0.00 0.00 0.00 23 1017.2
20260509164017 84 143 1.0 7.0 0.00 0.00 0.00 23 1017.2
20260509163957 84 143 0.0 7.0 0.00 0.00 0.00 23 1017.2
20260509162537 84 157 2.0 9.0 0.00 0.00 0.00 23 1017.2
20260509162517 84 155 3.0 9.0 0.00 0.00 0.00 23 1017.2
20260509162457 84 156 1.0 9.0 0.00 0.00 0.00 23 1017.2
20260509161038 86 144 1.0 5.0 0.00 0.00 0.00 23 1017.1
20260509161017 86 143 3.0 5.0 0.00 0.00 0.00 23 1017.1
20260509160957 86 144 1.0 5.0 0.00 0.00 0.00 23 1017.1
20260509155537 86 147 3.0 11.0 0.00 0.00 0.00 23 1017.1
20260509155517 86 148 5.0 11.0 0.00 0.00 0.00 23 1017.2
20260509155457 86 147 3.0 11.0 0.00 0.00 0.00 23 1017.1
20260509154038 86 133 1.0 8.0 0.00 0.00 0.00 23 1017.2
20260509154018 86 132 0.0 8.0 0.00 0.00 0.00 23 1017.2
20260509153958 86 131 3.0 8.0 0.00 0.00 0.00 23 1017.2
20260509152518 86 151 1.0 8.0 0.00 0.00 0.00 23 1017.3
20260509152458 86 152 1.0 8.0 0.00 0.00 0.00 23 1017.3
20260509151038 86 151 5.0 11.0 0.00 0.00 0.00 23 1017.4
20260509151018 86 150 1.0 11.0 0.00 0.00 0.00 23 1017.5
20260509150958 86 151 3.0 11.0 0.00 0.00 0.00 23 1017.4
20260509145538 89 137 1.0 8.0 0.00 0.00 0.00 22 1017.5
20260509145518 89 136 1.0 8.0 0.00 0.00 0.00 22 1017.5
20260509145458 89 139 2.0 8.0 0.00 0.00 0.00 22 1017.5
20260509144038 93 148 3.0 7.0 0.00 0.00 0.00 21 1017.5
20260509144018 93 147 1.0 7.0 0.00 0.00 0.00 21 1017.5
20260509143958 93 145 2.0 7.0 0.00 0.00 0.00 21 1017.5
20260509142533 93 134 1.0 8.0 0.00 0.00 0.00 21 1017.7
20260509142513 93 136 1.0 8.0 0.00 0.00 0.00 21 1017.7
20260509142453 93 137 2.0 8.0 0.00 0.00 0.00 21 1017.8
20260509141033 91 137 1.0 8.0 0.00 0.00 0.00 21 1017.8
20260509141013 91 136 1.0 8.0 0.00 0.00 0.00 21 1017.8
20260509140953 91 135 3.0 8.0 0.00 0.00 0.00 21 1017.8
20260509135533 96 148 7.0 9.0 0.00 0.00 0.00 19 1017.9
20260509135513 96 149 3.0 9.0 0.00 0.00 0.00 20 1017.9
20260509135453 96 148 1.0 9.0 0.00 0.00 0.00 19 1017.9
20260509134033 96 137 3.0 7.0 0.00 0.00 0.00 19 1018.0
20260509134013 96 137 1.0 7.0 0.00 0.00 0.00 19 1017.9
20260509133953 96 136 1.0 7.0 0.00 0.00 0.00 19 1018.0
20260509132534 95 128 1.0 8.0 0.00 0.00 0.00 19 1018.1
20260509132514 95 126 1.0 8.0 0.00 0.00 0.00 19 1018.2
20260509132454 95 127 3.0 8.0 0.00 0.00 0.00 18 1018.1
20260509131034 94 133 0.0 7.0 0.00 0.00 0.00 18 1018.4
20260509131014 94 133 1.0 7.0 0.00 0.00 0.00 18 1018.3
20260509130954 94 132 0.0 7.0 0.00 0.00 0.00 18 1018.4
20260509125534 96 142 3.0 8.0 0.00 0.00 0.00 18 1018.3
20260509125514 96 142 0.0 8.0 0.00 0.00 0.00 18 1018.3
20260509125454 96 141 1.0 8.0 0.00 0.00 0.00 18 1018.3
20260509124035 95 132 0.0 5.0 0.00 0.00 0.00 19 1018.3
20260509124014 95 131 0.0 5.0 0.00 0.00 0.00 19 1018.4
20260509123954 95 134 0.0 5.0 0.00 0.00 0.00 19 1018.4
20260509122534 95 135 2.0 8.0 0.00 0.00 0.00 19 1018.5
20260509122514 95 133 1.0 8.0 0.00 0.00 0.00 19 1018.5
20260509122454 95 132 1.0 8.0 0.00 0.00 0.00 19 1018.5
20260509121034 89 128 1.0 5.0 0.00 0.00 0.00 22 1018.7
20260509121014 89 127 1.0 5.0 0.00 0.00 0.00 22 1018.7
20260509120955 89 126 1.0 5.0 0.00 0.00 0.00 22 1018.6
20260509115535 84 131 1.0 9.0 0.00 0.00 0.00 23 1018.7
20260509115515 82 131 1.0 9.0 0.00 0.00 0.00 24 1018.7
20260509115455 82 130 1.0 9.0 0.00 0.00 0.00 24 1018.6
20260509114034 77 144 2.0 8.0 0.00 0.00 0.00 25 1018.7
20260509114015 75 144 1.0 8.0 0.00 0.00 0.00 26 1018.7
20260509113954 75 145 1.0 8.0 0.00 0.00 0.00 26 1018.7
20260509112547 77 140 1.0 7.0 0.00 0.00 0.00 25 1018.9
20260509112535 77 142 3.0 7.0 0.00 0.00 0.00 25 1018.8
20260509112515 77 140 1.0 7.0 0.00 0.00 0.00 25 1018.9
20260509112455 77 142 2.0 7.0 0.00 0.00 0.00 25 1018.9
20260509111101 69 140 1.0 8.0 0.00 0.00 0.00 27 1018.9
20260509111015 69 140 1.0 8.0 0.00 0.00 0.00 27 1018.9
20260509110955 69 140 0.0 8.0 0.00 0.00 0.00 27 1018.8
20260509105607 68 130 0.0 7.0 0.00 0.00 0.00 28 1019.0
20260509105535 68 130 0.0 7.0 0.00 0.00 0.00 28 1019.0
20260509105515 68 130 0.0 7.0 0.00 0.00 0.00 28 1018.9
20260509105455 68 132 1.0 7.0 0.00 0.00 0.00 28 1019.0
20260509104015 67 135 1.0 7.0 0.00 0.00 0.00 28 1019.1
20260509103955 67 136 1.0 7.0 0.00 0.00 0.00 28 1019.0
20260509102535 67 112 2.0 5.0 0.00 0.00 0.00 28 1019.1
20260509102515 67 112 1.0 5.0 0.00 0.00 0.00 28 1019.1
20260509102455 67 111 1.0 5.0 0.00 0.00 0.00 28 1019.2
20260509101035 66 131 2.0 8.0 0.00 0.00 0.00 28 1019.1
20260509101015 66 132 1.0 8.0 0.00 0.00 0.00 28 1019.1
20260509100955 66 132 1.0 8.0 0.00 0.00 0.00 28 1019.0
20260509095516 66 115 1.0 7.0 0.00 0.00 0.00 28 1019.2
20260509095456 66 117 3.0 7.0 0.00 0.00 0.00 28 1019.1
20260509094036 65 123 1.0 8.0 0.00 0.00 0.00 28 1019.3
20260509094016 65 122 1.0 8.0 0.00 0.00 0.00 28 1019.2
20260509093956 65 122 2.0 8.0 0.00 0.00 0.00 28 1019.2
20260509092536 64 123 1.0 8.0 0.00 0.00 0.00 29 1019.3
20260509092516 64 124 1.0 8.0 0.00 0.00 0.00 29 1019.4
20260509092456 64 123 3.0 7.0 0.00 0.00 0.00 29 1019.3
20260509091036 63 133 1.0 8.0 0.00 0.00 0.00 29 1019.4
20260509091016 63 135 1.0 8.0 0.00 0.00 0.00 29 1019.4
20260509090956 63 136 2.0 8.0 0.00 0.00 0.00 29 1019.4
20260509085536 62 128 1.0 7.0 0.00 0.00 0.00 29 1019.4
20260509085516 62 129 0.0 7.0 0.00 0.00 0.00 29 1019.4
20260509085456 62 130 1.0 7.0 0.00 0.00 0.00 29 1019.4
20260509084036 62 104 0.0 5.0 0.00 0.00 0.00 29 1019.3
20260509084016 62 103 1.0 5.0 0.00 0.00 0.00 29 1019.4
20260509083956 62 102 1.0 5.0 0.00 0.00 0.00 29 1019.3
20260509082537 61 138 0.0 4.0 0.00 0.00 0.00 29 1019.4
20260509082516 61 137 0.0 4.0 0.00 0.00 0.00 29 1019.4
20260509082456 61 138 0.0 4.0 0.00 0.00 0.00 29 1019.4
20260509081037 60 144 1.0 5.0 0.00 0.00 0.00 29 1019.5
20260509081017 60 146 1.0 5.0 0.00 0.00 0.00 29 1019.5
20260509080957 60 147 1.0 5.0 0.00 0.00 0.00 29 1019.5
20260509075537 59 141 0.0 5.0 0.00 0.00 0.00 30 1019.5
20260509075517 59 139 1.0 5.0 0.00 0.00 0.00 30 1019.4
20260509075457 59 140 1.0 5.0 0.00 0.00 0.00 30 1019.5
20260509074037 58 125 0.0 5.0 0.00 0.00 0.00 30 1019.5
20260509074017 58 126 0.0 5.0 0.00 0.00 0.00 30 1019.5
20260509073957 58 126 0.0 5.0 0.00 0.00 0.00 30 1019.6
20260509072537 57 118 1.0 5.0 0.00 0.00 0.00 30 1019.6
20260509072517 57 116 1.0 5.0 0.00 0.00 0.00 30 1019.6
20260509072457 57 116 3.0 5.0 0.00 0.00 0.00 30 1019.5
20260509071037 56 132 1.0 4.0 0.00 0.00 0.00 30 1019.6
20260509070957 56 133 1.0 4.0 0.00 0.00 0.00 30 1019.6
20260509065537 55 135 0.0 4.0 0.00 0.00 0.00 30 1019.5
20260509065518 55 135 0.0 4.0 0.00 0.00 0.00 30 1019.6
20260509065457 55 134 0.0 4.0 0.00 0.00 0.00 30 1019.6
20260509064037 55 134 1.0 4.0 0.00 0.00 0.00 31 1019.7
20260509064017 55 134 0.0 4.0 0.00 0.00 0.00 31 1019.7
20260509063957 55 136 0.0 4.0 0.00 0.00 0.00 31 1019.7
20260509062538 55 125 0.0 4.0 0.00 0.00 0.00 31 1019.7
20260509062518 55 124 1.0 4.0 0.00 0.00 0.00 31 1019.7
20260509062457 55 124 1.0 2.0 0.00 0.00 0.00 31 1019.7
20260509061038 54 118 0.0 4.0 0.00 0.00 0.00 31 1019.6
20260509061018 54 119 0.0 4.0 0.00 0.00 0.00 31 1019.6
20260509060958 54 119 0.0 4.0 0.00 0.00 0.00 31 1019.7
20260509055538 53 120 0.0 4.0 0.00 0.00 0.00 31 1019.5
20260509055518 53 120 1.0 4.0 0.00 0.00 0.00 31 1019.5
20260509055458 53 121 2.0 4.0 0.00 0.00 0.00 31 1019.5
20260509054038 51 119 1.0 5.0 0.00 0.00 0.00 31 1019.5
20260509054018 52 118 1.0 5.0 0.00 0.00 0.00 31 1019.5
20260509053958 51 117 1.0 5.0 0.00 0.00 0.00 31 1019.5
20260509052538 51 135 0.0 2.0 0.00 0.00 0.00 31 1019.3
20260509052518 51 136 0.0 2.0 0.00 0.00 0.00 31 1019.3
20260509052458 51 137 1.0 2.0 0.00 0.00 0.00 31 1019.3
20260509051033 50 120 0.0 4.0 0.00 0.00 0.00 31 1019.2
20260509051013 50 120 0.0 4.0 0.00 0.00 0.00 32 1019.2
20260509050953 50 121 0.0 4.0 0.00 0.00 0.00 31 1019.2
20260509045533 49 153 0.0 4.0 0.00 0.00 0.00 32 1019.1
20260509045513 49 155 1.0 4.0 0.00 0.00 0.00 32 1019.1
20260509045453 49 157 0.0 4.0 0.00 0.00 0.00 32 1019.1
20260509044034 49 139 1.0 4.0 0.00 0.00 0.00 32 1019.1
20260509044014 49 138 1.0 4.0 0.00 0.00 0.00 32 1019.2
20260509043953 49 137 0.0 4.0 0.00 0.00 0.00 32 1019.0
20260509042534 49 148 0.0 2.0 0.00 0.00 0.00 32 1019.0
20260509042514 49 148 1.0 2.0 0.00 0.00 0.00 32 1019.0
20260509042454 49 147 1.0 2.0 0.00 0.00 0.00 32 1018.9
20260509041034 49 141 0.0 2.0 0.00 0.00 0.00 32 1019.1
20260509040954 49 141 0.0 2.0 0.00 0.00 0.00 32 1019.1
20260509035534 49 107 0.0 2.0 0.00 0.00 0.00 32 1019.0
20260509035454 49 107 0.0 2.0 0.00 0.00 0.00 32 1019.0
20260509034034 50 83 0.0 1.0 0.00 0.00 0.00 32 1019.2
20260509033954 50 83 0.0 1.0 0.00 0.00 0.00 32 1019.2
20260509032534 50 118 0.0 1.0 0.00 0.00 0.00 31 1019.1
20260509032514 50 117 0.0 1.0 0.00 0.00 0.00 31 1019.2
20260509032454 50 116 0.0 1.0 0.00 0.00 0.00 31 1019.2
20260509031034 51 156 0.0 1.0 0.00 0.00 0.00 31 1019.3
20260509031014 51 156 0.0 1.0 0.00 0.00 0.00 31 1019.2
20260509030954 51 155 0.0 1.0 0.00 0.00 0.00 31 1019.3